Year,Month,Day,Hour,Minute,Value (Times are PST for temperature in C)
2015,04,09,00,00,4.40
2015,04,09,00,01,4.40
2015,04,09,00,02,4.40
2015,04,09,00,03,4.40
2015,04,09,00,04,4.40
2015,04,09,00,05,4.30
2015,04,09,00,06,4.30
2015,04,09,00,07,4.30
2015,04,09,00,08,4.30
2015,04,09,00,09,4.30
2015,04,09,00,10,4.30
2015,04,09,00,11,4.30
2015,04,09,00,12,4.30
2015,04,09,00,13,4.20
2015,04,09,00,14,4.20
2015,04,09,00,15,4.20
2015,04,09,00,16,4.10
2015,04,09,00,17,4.10
2015,04,09,00,18,4.10
2015,04,09,00,19,4.10
2015,04,09,00,20,4.10
2015,04,09,00,21,4.10
2015,04,09,00,22,4.10
2015,04,09,00,23,4.00
2015,04,09,00,24,4.00
2015,04,09,00,25,4.00
2015,04,09,00,26,4.00
2015,04,09,00,27,3.90
2015,04,09,00,28,3.90
2015,04,09,00,29,3.90
2015,04,09,00,30,3.90
2015,04,09,00,31,3.80
2015,04,09,00,32,3.80
2015,04,09,00,33,3.80
2015,04,09,00,34,3.80
2015,04,09,00,35,3.80
2015,04,09,00,36,3.80
2015,04,09,00,37,3.80
2015,04,09,00,38,3.80
2015,04,09,00,39,3.80
2015,04,09,00,40,3.70
2015,04,09,00,41,3.70
2015,04,09,00,42,3.70
2015,04,09,00,43,3.70
2015,04,09,00,44,3.70
2015,04,09,00,45,3.70
2015,04,09,00,46,3.70
2015,04,09,00,47,3.80
2015,04,09,00,48,3.80
2015,04,09,00,49,3.70
2015,04,09,00,50,3.70
2015,04,09,00,51,3.70
2015,04,09,00,52,3.70
2015,04,09,00,53,3.70
2015,04,09,00,54,3.70
2015,04,09,00,55,3.70
2015,04,09,00,56,3.70
2015,04,09,00,57,3.70
2015,04,09,00,58,3.70
2015,04,09,00,59,3.70
2015,04,09,01,00,3.60
2015,04,09,01,01,3.60
2015,04,09,01,02,3.60
2015,04,09,01,03,3.60
2015,04,09,01,04,3.60
2015,04,09,01,05,3.60
2015,04,09,01,06,3.60
2015,04,09,01,07,3.60
2015,04,09,01,08,3.50
2015,04,09,01,09,3.50
2015,04,09,01,10,3.50
2015,04,09,01,11,3.40
2015,04,09,01,12,3.40
2015,04,09,01,13,3.40
2015,04,09,01,14,3.40
2015,04,09,01,15,3.40
2015,04,09,01,16,3.40
2015,04,09,01,17,3.40
2015,04,09,01,18,3.30
2015,04,09,01,19,3.30
2015,04,09,01,20,3.30
2015,04,09,01,21,3.30
2015,04,09,01,22,3.30
2015,04,09,01,23,3.30
2015,04,09,01,24,3.30
2015,04,09,01,25,3.30
2015,04,09,01,26,3.30
2015,04,09,01,27,3.20
2015,04,09,01,28,3.20
2015,04,09,01,29,3.20
2015,04,09,01,30,3.20
2015,04,09,01,31,3.20
2015,04,09,01,32,3.10
2015,04,09,01,33,3.10
2015,04,09,01,34,3.10
2015,04,09,01,35,3.10
2015,04,09,01,36,3.10
2015,04,09,01,37,3.10
2015,04,09,01,38,3.00
2015,04,09,01,39,3.00
2015,04,09,01,40,3.00
2015,04,09,01,41,3.00
2015,04,09,01,42,3.00
2015,04,09,01,43,3.00
2015,04,09,01,44,2.90
2015,04,09,01,45,2.90
2015,04,09,01,46,2.90
2015,04,09,01,47,2.90
2015,04,09,01,48,2.90
2015,04,09,01,49,2.90
2015,04,09,01,50,2.80
2015,04,09,01,51,2.80
2015,04,09,01,52,2.80
2015,04,09,01,53,2.80
2015,04,09,01,54,2.80
2015,04,09,01,55,2.80
2015,04,09,01,56,2.80
2015,04,09,01,57,2.80
2015,04,09,01,58,2.80
2015,04,09,01,59,2.80
2015,04,09,02,00,2.80
2015,04,09,02,01,2.80
2015,04,09,02,02,2.80
2015,04,09,02,03,2.70
2015,04,09,02,04,2.70
2015,04,09,02,05,2.70
2015,04,09,02,06,2.70
2015,04,09,02,07,2.70
2015,04,09,02,08,2.70
2015,04,09,02,09,2.70
2015,04,09,02,10,2.70
2015,04,09,02,11,2.70
2015,04,09,02,12,2.70
2015,04,09,02,13,2.60
2015,04,09,02,14,2.60
2015,04,09,02,15,2.60
2015,04,09,02,16,2.60
2015,04,09,02,17,2.60
2015,04,09,02,18,2.60
2015,04,09,02,19,2.60
2015,04,09,02,20,2.50
2015,04,09,02,21,2.50
2015,04,09,02,22,2.50
2015,04,09,02,23,2.50
2015,04,09,02,24,2.50
2015,04,09,02,25,2.40
2015,04,09,02,26,2.40
2015,04,09,02,27,2.40
2015,04,09,02,28,2.40
2015,04,09,02,29,2.40
2015,04,09,02,30,2.40
2015,04,09,02,31,2.50
2015,04,09,02,32,2.50
2015,04,09,02,33,2.50
2015,04,09,02,34,2.50
2015,04,09,02,35,2.50
2015,04,09,02,36,2.50
2015,04,09,02,37,2.50
2015,04,09,02,38,2.50
2015,04,09,02,39,2.50
2015,04,09,02,40,2.50
2015,04,09,02,41,2.50
2015,04,09,02,42,2.60
2015,04,09,02,43,2.60
2015,04,09,02,44,2.60
2015,04,09,02,45,2.60
2015,04,09,02,46,2.60
2015,04,09,02,47,2.60
2015,04,09,02,48,2.50
2015,04,09,02,49,2.50
2015,04,09,02,50,2.50
2015,04,09,02,51,2.50
2015,04,09,02,52,2.50
2015,04,09,02,53,2.50
2015,04,09,02,54,2.50
2015,04,09,02,55,2.50
2015,04,09,02,56,2.50
2015,04,09,02,57,2.50
2015,04,09,02,58,2.40
2015,04,09,02,59,2.40
2015,04,09,03,00,2.40
2015,04,09,03,01,2.40
2015,04,09,03,02,2.40
2015,04,09,03,03,2.40
2015,04,09,03,04,2.40
2015,04,09,03,05,2.40
2015,04,09,03,06,2.40
2015,04,09,03,07,2.40
2015,04,09,03,08,2.40
2015,04,09,03,09,2.30
2015,04,09,03,10,2.30
2015,04,09,03,11,2.30
2015,04,09,03,12,2.30
2015,04,09,03,13,2.30
2015,04,09,03,14,2.30
2015,04,09,03,15,2.30
2015,04,09,03,16,2.30
2015,04,09,03,17,2.30
2015,04,09,03,18,2.30
2015,04,09,03,19,2.30
2015,04,09,03,20,2.30
2015,04,09,03,21,2.30
2015,04,09,03,22,2.20
2015,04,09,03,23,2.20
2015,04,09,03,24,2.20
2015,04,09,03,25,2.20
2015,04,09,03,26,2.20
2015,04,09,03,27,2.10
2015,04,09,03,28,2.10
2015,04,09,03,29,2.10
2015,04,09,03,30,2.10
2015,04,09,03,31,2.10
2015,04,09,03,32,2.10
2015,04,09,03,33,2.10
2015,04,09,03,34,2.10
2015,04,09,03,35,2.10
2015,04,09,03,36,2.10
2015,04,09,03,37,2.10
2015,04,09,03,38,2.00
2015,04,09,03,39,2.00
2015,04,09,03,40,2.00
2015,04,09,03,41,2.00
2015,04,09,03,42,1.90
2015,04,09,03,43,1.90
2015,04,09,03,44,1.90
2015,04,09,03,45,1.90
2015,04,09,03,46,1.90
2015,04,09,03,47,1.90
2015,04,09,03,48,1.90
2015,04,09,03,49,1.90
2015,04,09,03,50,1.80
2015,04,09,03,51,1.80
2015,04,09,03,52,1.80
2015,04,09,03,53,1.80
2015,04,09,03,54,1.80
2015,04,09,03,55,1.80
2015,04,09,03,56,1.80
2015,04,09,03,57,1.80
2015,04,09,03,58,1.80
2015,04,09,03,59,1.70
2015,04,09,04,00,1.70
2015,04,09,04,01,1.70
2015,04,09,04,02,1.70
2015,04,09,04,03,1.70
2015,04,09,04,04,1.70
2015,04,09,04,05,1.70
2015,04,09,04,06,1.70
2015,04,09,04,07,1.60
2015,04,09,04,08,1.60
2015,04,09,04,09,1.60
2015,04,09,04,10,1.60
2015,04,09,04,11,1.60
2015,04,09,04,12,1.60
2015,04,09,04,13,1.60
2015,04,09,04,14,1.60
2015,04,09,04,15,1.60
2015,04,09,04,16,1.60
2015,04,09,04,17,1.60
2015,04,09,04,18,1.60
2015,04,09,04,19,1.60
2015,04,09,04,20,1.60
2015,04,09,04,21,1.50
2015,04,09,04,22,1.50
2015,04,09,04,23,1.50
2015,04,09,04,24,1.50
2015,04,09,04,25,1.50
2015,04,09,04,26,1.50
2015,04,09,04,27,1.50
2015,04,09,04,28,1.50
2015,04,09,04,29,1.50
2015,04,09,04,30,1.40
2015,04,09,04,31,1.40
2015,04,09,04,32,1.40
2015,04,09,04,33,1.40
2015,04,09,04,34,1.30
2015,04,09,04,35,1.30
2015,04,09,04,36,1.30
2015,04,09,04,37,1.30
2015,04,09,04,38,1.30
2015,04,09,04,39,1.30
2015,04,09,04,40,1.30
2015,04,09,04,41,1.30
2015,04,09,04,42,1.30
2015,04,09,04,43,1.30
2015,04,09,04,44,1.30
2015,04,09,04,45,1.30
2015,04,09,04,46,1.30
2015,04,09,04,47,1.30
2015,04,09,04,48,1.30
2015,04,09,04,49,1.30
2015,04,09,04,50,1.30
2015,04,09,04,51,1.30
2015,04,09,04,52,1.30
2015,04,09,04,53,1.30
2015,04,09,04,54,1.30
2015,04,09,04,55,1.20
2015,04,09,04,56,1.20
2015,04,09,04,57,1.20
2015,04,09,04,58,1.20
2015,04,09,04,59,1.30
2015,04,09,05,00,1.30
2015,04,09,05,01,1.30
2015,04,09,05,02,1.30
2015,04,09,05,03,1.30
2015,04,09,05,04,1.30
2015,04,09,05,05,1.30
2015,04,09,05,06,1.30
2015,04,09,05,07,1.30
2015,04,09,05,08,1.30
2015,04,09,05,09,1.30
2015,04,09,05,10,1.30
2015,04,09,05,11,1.30
2015,04,09,05,12,1.30
2015,04,09,05,13,1.30
2015,04,09,05,14,1.30
2015,04,09,05,15,1.20
2015,04,09,05,16,1.20
2015,04,09,05,17,1.20
2015,04,09,05,18,1.20
2015,04,09,05,19,1.20
2015,04,09,05,20,1.20
2015,04,09,05,21,1.10
2015,04,09,05,22,1.10
2015,04,09,05,23,1.10
2015,04,09,05,24,1.10
2015,04,09,05,25,1.10
2015,04,09,05,26,1.10
2015,04,09,05,27,1.10
2015,04,09,05,28,1.10
2015,04,09,05,29,1.10
2015,04,09,05,30,1.10
2015,04,09,05,31,1.10
2015,04,09,05,32,1.10
2015,04,09,05,33,1.10
2015,04,09,05,34,1.00
2015,04,09,05,35,1.00
2015,04,09,05,36,1.00
2015,04,09,05,37,1.10
2015,04,09,05,38,1.10
2015,04,09,05,39,1.00
2015,04,09,05,40,1.10
2015,04,09,05,41,1.10
2015,04,09,05,42,1.10
2015,04,09,05,43,1.10
2015,04,09,05,44,1.10
2015,04,09,05,45,1.10
2015,04,09,05,46,1.10
2015,04,09,05,47,1.00
2015,04,09,05,48,1.00
2015,04,09,05,49,1.00
2015,04,09,05,50,1.00
2015,04,09,05,51,1.00
2015,04,09,05,52,1.00
2015,04,09,05,53,1.00
2015,04,09,05,54,1.00
2015,04,09,05,55,0.90
2015,04,09,05,56,0.90
2015,04,09,05,57,0.90
2015,04,09,05,58,0.90
2015,04,09,05,59,0.90
2015,04,09,06,00,0.90
2015,04,09,06,01,0.90
2015,04,09,06,02,0.90
2015,04,09,06,03,0.80
2015,04,09,06,04,0.80
2015,04,09,06,05,0.80
2015,04,09,06,06,0.80
2015,04,09,06,07,0.80
2015,04,09,06,08,0.80
2015,04,09,06,09,0.80
2015,04,09,06,10,0.80
2015,04,09,06,11,0.80
2015,04,09,06,12,0.80
2015,04,09,06,13,0.80
2015,04,09,06,14,0.80
2015,04,09,06,15,0.80
2015,04,09,06,16,0.80
2015,04,09,06,17,0.80
2015,04,09,06,18,0.80
2015,04,09,06,19,0.80
2015,04,09,06,20,0.80
2015,04,09,06,21,0.80
2015,04,09,06,22,0.80
2015,04,09,06,23,0.80
2015,04,09,06,24,0.80
2015,04,09,06,25,0.80
2015,04,09,06,26,0.80
2015,04,09,06,27,0.90
2015,04,09,06,28,0.90
2015,04,09,06,29,0.90
2015,04,09,06,30,1.00
2015,04,09,06,31,1.00
2015,04,09,06,32,1.00
2015,04,09,06,33,1.00
2015,04,09,06,34,1.00
2015,04,09,06,35,1.00
2015,04,09,06,36,1.00
2015,04,09,06,37,1.00
2015,04,09,06,38,1.10
2015,04,09,06,39,1.10
2015,04,09,06,40,1.10
2015,04,09,06,41,1.10
2015,04,09,06,42,1.10
2015,04,09,06,43,1.10
2015,04,09,06,44,1.10
2015,04,09,06,45,1.10
2015,04,09,06,46,1.10
2015,04,09,06,47,1.10
2015,04,09,06,48,1.10
2015,04,09,06,49,1.10
2015,04,09,06,50,1.10
2015,04,09,06,51,1.10
2015,04,09,06,52,1.10
2015,04,09,06,53,1.10
2015,04,09,06,54,1.10
2015,04,09,06,55,1.10
2015,04,09,06,56,1.10
2015,04,09,06,57,1.20
2015,04,09,06,58,1.20
2015,04,09,06,59,1.20
2015,04,09,07,00,1.20
2015,04,09,07,01,1.20
2015,04,09,07,02,1.20
2015,04,09,07,03,1.20
2015,04,09,07,04,1.20
2015,04,09,07,05,1.30
2015,04,09,07,06,1.30
2015,04,09,07,07,1.30
2015,04,09,07,08,1.30
2015,04,09,07,09,1.30
2015,04,09,07,10,1.30
2015,04,09,07,11,1.30
2015,04,09,07,12,1.50
2015,04,09,07,13,1.50
2015,04,09,07,14,1.50
2015,04,09,07,15,1.60
2015,04,09,07,16,1.60
2015,04,09,07,17,1.60
2015,04,09,07,18,1.60
2015,04,09,07,19,1.70
2015,04,09,07,20,1.70
2015,04,09,07,21,1.70
2015,04,09,07,22,1.70
2015,04,09,07,23,1.70
2015,04,09,07,24,1.80
2015,04,09,07,25,1.80
2015,04,09,07,26,1.80
2015,04,09,07,27,1.80
2015,04,09,07,28,1.80
2015,04,09,07,29,1.90
2015,04,09,07,30,1.90
2015,04,09,07,31,2.00
2015,04,09,07,32,2.10
2015,04,09,07,33,2.10
2015,04,09,07,34,2.10
2015,04,09,07,35,2.20
2015,04,09,07,36,2.20
2015,04,09,07,37,2.20
2015,04,09,07,38,2.20
2015,04,09,07,39,2.20
2015,04,09,07,40,2.30
2015,04,09,07,41,2.30
2015,04,09,07,42,2.40
2015,04,09,07,43,2.40
2015,04,09,07,44,2.40
2015,04,09,07,45,2.50
2015,04,09,07,46,2.60
2015,04,09,07,47,2.70
2015,04,09,07,48,2.70
2015,04,09,07,49,2.80
2015,04,09,07,50,2.80
2015,04,09,07,51,2.90
2015,04,09,07,52,2.90
2015,04,09,07,53,3.00
2015,04,09,07,54,3.00
2015,04,09,07,55,3.10
2015,04,09,07,56,3.20
2015,04,09,07,57,3.20
2015,04,09,07,58,3.20
2015,04,09,07,59,3.20
2015,04,09,08,00,3.30
2015,04,09,08,01,3.30
2015,04,09,08,02,3.30
2015,04,09,08,03,3.40
2015,04,09,08,04,3.40
2015,04,09,08,05,3.40
2015,04,09,08,06,3.40
2015,04,09,08,07,3.40
2015,04,09,08,08,3.40
2015,04,09,08,09,3.40
2015,04,09,08,10,3.40
2015,04,09,08,11,3.40
2015,04,09,08,12,3.40
2015,04,09,08,13,3.40
2015,04,09,08,14,3.40
2015,04,09,08,15,3.50
2015,04,09,08,16,3.50
2015,04,09,08,17,3.60
2015,04,09,08,18,3.60
2015,04,09,08,19,3.70
2015,04,09,08,20,3.70
2015,04,09,08,21,3.80
2015,04,09,08,22,3.90
2015,04,09,08,23,4.00
2015,04,09,08,24,4.10
2015,04,09,08,25,4.20
2015,04,09,08,26,4.30
2015,04,09,08,27,4.40
2015,04,09,08,28,4.60
2015,04,09,08,29,4.70
2015,04,09,08,30,4.70
2015,04,09,08,31,4.70
2015,04,09,08,32,4.80
2015,04,09,08,33,4.80
2015,04,09,08,34,4.80
2015,04,09,08,35,4.90
2015,04,09,08,36,5.00
2015,04,09,08,37,5.10
2015,04,09,08,38,5.20
2015,04,09,08,39,5.30
2015,04,09,08,40,5.40
2015,04,09,08,41,5.50
2015,04,09,08,42,5.60
2015,04,09,08,43,5.70
2015,04,09,08,44,5.80
2015,04,09,08,45,5.80
2015,04,09,08,46,5.90
2015,04,09,08,47,6.00
2015,04,09,08,48,6.10
2015,04,09,08,49,6.20
2015,04,09,08,50,6.30
2015,04,09,08,51,6.40
2015,04,09,08,52,6.50
2015,04,09,08,53,6.50
2015,04,09,08,54,6.60
2015,04,09,08,55,6.70
2015,04,09,08,56,6.80
2015,04,09,08,57,6.80
2015,04,09,08,58,6.90
2015,04,09,08,59,7.00
2015,04,09,09,00,7.10
2015,04,09,09,01,7.10
2015,04,09,09,02,7.20
2015,04,09,09,03,7.30
2015,04,09,09,04,7.40
2015,04,09,09,05,7.50
2015,04,09,09,06,7.60
2015,04,09,09,07,7.70
2015,04,09,09,08,7.70
2015,04,09,09,09,7.80
2015,04,09,09,10,7.90
2015,04,09,09,11,7.90
2015,04,09,09,12,8.00
2015,04,09,09,13,8.00
2015,04,09,09,14,8.10
2015,04,09,09,15,8.20
2015,04,09,09,16,8.20
2015,04,09,09,17,8.30
2015,04,09,09,18,8.40
2015,04,09,09,19,8.40
2015,04,09,09,20,8.50
2015,04,09,09,21,8.60
2015,04,09,09,22,8.70
2015,04,09,09,23,8.70
2015,04,09,09,24,8.80
2015,04,09,09,25,8.80
2015,04,09,09,26,8.80
2015,04,09,09,27,8.80
2015,04,09,09,28,8.90
2015,04,09,09,29,8.90
2015,04,09,09,30,9.00
2015,04,09,09,31,9.00
2015,04,09,09,32,9.10
2015,04,09,09,33,9.20
2015,04,09,09,34,9.20
2015,04,09,09,35,9.30
2015,04,09,09,36,9.30
2015,04,09,09,37,9.40
2015,04,09,09,38,9.40
2015,04,09,09,39,9.50
2015,04,09,09,40,9.50
2015,04,09,09,41,9.60
2015,04,09,09,42,9.60
2015,04,09,09,43,9.70
2015,04,09,09,44,9.70
2015,04,09,09,45,9.70
2015,04,09,09,46,9.70
2015,04,09,09,47,9.70
2015,04,09,09,48,9.80
2015,04,09,09,49,9.80
2015,04,09,09,50,9.80
2015,04,09,09,51,9.80
2015,04,09,09,52,9.80
2015,04,09,09,53,9.80
2015,04,09,09,54,9.80
2015,04,09,09,55,9.80
2015,04,09,09,56,9.80
2015,04,09,09,57,9.80
2015,04,09,09,58,9.80
2015,04,09,09,59,9.80
2015,04,09,10,00,9.80
2015,04,09,10,01,9.90
2015,04,09,10,02,9.90
2015,04,09,10,03,10.00
2015,04,09,10,04,10.00
2015,04,09,10,05,10.10
2015,04,09,10,06,10.00
2015,04,09,10,07,10.00
2015,04,09,10,08,10.00
2015,04,09,10,09,10.00
2015,04,09,10,10,10.00
2015,04,09,10,11,10.00
2015,04,09,10,12,9.90
2015,04,09,10,13,9.90
2015,04,09,10,14,9.90
2015,04,09,10,15,9.90
2015,04,09,10,16,9.80
2015,04,09,10,17,9.80
2015,04,09,10,18,9.90
2015,04,09,10,19,9.90
2015,04,09,10,20,10.00
2015,04,09,10,21,10.10
2015,04,09,10,22,10.20
2015,04,09,10,23,10.20
2015,04,09,10,24,10.30
2015,04,09,10,25,10.40
2015,04,09,10,26,10.40
2015,04,09,10,27,10.40
2015,04,09,10,28,10.40
2015,04,09,10,29,10.40
2015,04,09,10,30,10.40
2015,04,09,10,31,10.40
2015,04,09,10,32,10.50
2015,04,09,10,33,10.60
2015,04,09,10,34,10.60
2015,04,09,10,35,10.70
2015,04,09,10,36,10.80
2015,04,09,10,37,10.90
2015,04,09,10,38,10.90
2015,04,09,10,39,11.00
2015,04,09,10,40,11.10
2015,04,09,10,41,11.20
2015,04,09,10,42,11.20
2015,04,09,10,43,11.20
2015,04,09,10,44,11.30
2015,04,09,10,45,11.30
2015,04,09,10,46,11.30
2015,04,09,10,47,11.20
2015,04,09,10,48,11.20
2015,04,09,10,49,11.20
2015,04,09,10,50,11.20
2015,04,09,10,51,11.20
2015,04,09,10,52,11.20
2015,04,09,10,53,11.20
2015,04,09,10,54,11.20
2015,04,09,10,55,11.20
2015,04,09,10,56,11.20
2015,04,09,10,57,11.20
2015,04,09,10,58,11.20
2015,04,09,10,59,11.20
2015,04,09,11,00,11.10
2015,04,09,11,01,11.00
2015,04,09,11,02,10.90
2015,04,09,11,03,10.80
2015,04,09,11,04,10.70
2015,04,09,11,05,10.70
2015,04,09,11,06,10.70
2015,04,09,11,07,10.70
2015,04,09,11,08,10.70
2015,04,09,11,09,10.70
2015,04,09,11,10,10.70
2015,04,09,11,11,10.80
2015,04,09,11,12,10.80
2015,04,09,11,13,10.90
2015,04,09,11,14,11.00
2015,04,09,11,15,11.10
2015,04,09,11,16,11.20
2015,04,09,11,17,11.30
2015,04,09,11,18,11.30
2015,04,09,11,19,11.40
2015,04,09,11,20,11.50
2015,04,09,11,21,11.50
2015,04,09,11,22,11.40
2015,04,09,11,23,11.30
2015,04,09,11,24,11.20
2015,04,09,11,25,11.10
2015,04,09,11,26,11.00
2015,04,09,11,27,10.90
2015,04,09,11,28,11.00
2015,04,09,11,29,11.00
2015,04,09,11,30,11.10
2015,04,09,11,31,11.20
2015,04,09,11,32,11.20
2015,04,09,11,33,11.20
2015,04,09,11,34,11.20
2015,04,09,11,35,11.30
2015,04,09,11,36,11.30
2015,04,09,11,37,11.40
2015,04,09,11,38,11.40
2015,04,09,11,39,11.40
2015,04,09,11,40,11.30
2015,04,09,11,41,11.20
2015,04,09,11,42,11.20
2015,04,09,11,43,11.20
2015,04,09,11,44,11.30
2015,04,09,11,45,11.30
2015,04,09,11,46,11.40
2015,04,09,11,47,11.50
2015,04,09,11,48,11.60
2015,04,09,11,49,11.70
2015,04,09,11,50,11.80
2015,04,09,11,51,11.80
2015,04,09,11,52,11.70
2015,04,09,11,53,11.70
2015,04,09,11,54,11.70
2015,04,09,11,55,11.60
2015,04,09,11,56,11.60
2015,04,09,11,57,11.50
2015,04,09,11,58,11.50
2015,04,09,11,59,11.50
2015,04,09,12,00,11.40
2015,04,09,12,01,11.30
2015,04,09,12,02,11.30
2015,04,09,12,03,11.20
2015,04,09,12,04,11.20
2015,04,09,12,05,11.10
2015,04,09,12,06,11.10
2015,04,09,12,07,11.00
2015,04,09,12,08,10.90
2015,04,09,12,09,10.90
2015,04,09,12,10,10.90
2015,04,09,12,11,10.90
2015,04,09,12,12,10.90
2015,04,09,12,13,11.00
2015,04,09,12,14,11.00
2015,04,09,12,15,11.10
2015,04,09,12,16,11.10
2015,04,09,12,17,11.10
2015,04,09,12,18,11.20
2015,04,09,12,19,11.20
2015,04,09,12,20,11.20
2015,04,09,12,21,11.20
2015,04,09,12,22,11.20
2015,04,09,12,23,11.10
2015,04,09,12,24,11.10
2015,04,09,12,25,11.10
2015,04,09,12,26,11.10
2015,04,09,12,27,11.10
2015,04,09,12,28,11.10
2015,04,09,12,29,11.00
2015,04,09,12,30,11.00
2015,04,09,12,31,11.00
2015,04,09,12,32,11.00
2015,04,09,12,33,11.00
2015,04,09,12,34,11.00
2015,04,09,12,35,11.10
2015,04,09,12,36,11.20
2015,04,09,12,37,11.20
2015,04,09,12,38,11.20
2015,04,09,12,39,11.30
2015,04,09,12,40,11.40
2015,04,09,12,41,11.40
2015,04,09,12,42,11.40
2015,04,09,12,43,11.40
2015,04,09,12,44,11.40
2015,04,09,12,45,11.40
2015,04,09,12,46,11.40
2015,04,09,12,47,11.30
2015,04,09,12,48,11.30
2015,04,09,12,49,11.30
2015,04,09,12,50,11.30
2015,04,09,12,51,11.30
2015,04,09,12,52,11.30
2015,04,09,12,53,11.40
2015,04,09,12,54,11.50
2015,04,09,12,55,11.50
2015,04,09,12,56,11.50
2015,04,09,12,57,11.60
2015,04,09,12,58,11.60
2015,04,09,12,59,11.50
2015,04,09,13,00,11.50
2015,04,09,13,01,11.40
2015,04,09,13,02,11.30
2015,04,09,13,03,11.30
2015,04,09,13,04,11.30
2015,04,09,13,05,11.40
2015,04,09,13,06,11.40
2015,04,09,13,07,11.40
2015,04,09,13,08,11.40
2015,04,09,13,09,11.40
2015,04,09,13,10,11.40
2015,04,09,13,11,11.40
2015,04,09,13,12,11.40
2015,04,09,13,13,11.40
2015,04,09,13,14,11.40
2015,04,09,13,15,11.40
2015,04,09,13,16,11.40
2015,04,09,13,17,11.40
2015,04,09,13,18,11.40
2015,04,09,13,19,11.40
2015,04,09,13,20,11.50
2015,04,09,13,21,11.60
2015,04,09,13,22,11.60
2015,04,09,13,23,11.60
2015,04,09,13,24,11.60
2015,04,09,13,25,11.50
2015,04,09,13,26,11.50
2015,04,09,13,27,11.50
2015,04,09,13,28,11.40
2015,04,09,13,29,11.30
2015,04,09,13,30,11.30
2015,04,09,13,31,11.40
2015,04,09,13,32,11.30
2015,04,09,13,33,11.40
2015,04,09,13,34,11.40
2015,04,09,13,35,11.40
2015,04,09,13,36,11.40
2015,04,09,13,37,11.40
2015,04,09,13,38,11.40
2015,04,09,13,39,11.40
2015,04,09,13,40,11.40
2015,04,09,13,41,11.40
2015,04,09,13,42,11.50
2015,04,09,13,43,11.50
2015,04,09,13,44,11.50
2015,04,09,13,45,11.50
2015,04,09,13,46,11.60
2015,04,09,13,47,11.60
2015,04,09,13,48,11.60
2015,04,09,13,49,11.60
2015,04,09,13,50,11.60
2015,04,09,13,51,11.70
2015,04,09,13,52,11.70
2015,04,09,13,53,11.70
2015,04,09,13,54,11.80
2015,04,09,13,55,11.80
2015,04,09,13,56,11.90
2015,04,09,13,57,12.00
2015,04,09,13,58,12.10
2015,04,09,13,59,12.20
2015,04,09,14,00,12.20
2015,04,09,14,01,12.30
2015,04,09,14,02,12.30
2015,04,09,14,03,12.30
2015,04,09,14,04,12.30
2015,04,09,14,05,12.30
2015,04,09,14,06,12.40
2015,04,09,14,07,12.50
2015,04,09,14,08,12.50
2015,04,09,14,09,12.60
2015,04,09,14,10,12.70
2015,04,09,14,11,12.80
2015,04,09,14,12,13.00
2015,04,09,14,13,13.10
2015,04,09,14,14,13.20
2015,04,09,14,15,13.30
2015,04,09,14,16,13.30
2015,04,09,14,17,13.40
2015,04,09,14,18,13.50
2015,04,09,14,19,13.50
2015,04,09,14,20,13.60
2015,04,09,14,21,13.60
2015,04,09,14,22,13.70
2015,04,09,14,23,13.70
2015,04,09,14,24,13.80
2015,04,09,14,25,13.70
2015,04,09,14,26,13.70
2015,04,09,14,27,13.70
2015,04,09,14,28,13.70
2015,04,09,14,29,13.80
2015,04,09,14,30,13.80
2015,04,09,14,31,13.80
2015,04,09,14,32,13.80
2015,04,09,14,33,13.90
2015,04,09,14,34,13.90
2015,04,09,14,35,14.00
2015,04,09,14,36,14.00
2015,04,09,14,37,14.00
2015,04,09,14,38,14.00
2015,04,09,14,39,14.00
2015,04,09,14,40,14.00
2015,04,09,14,41,14.00
2015,04,09,14,42,13.90
2015,04,09,14,43,13.80
2015,04,09,14,44,13.70
2015,04,09,14,45,13.60
2015,04,09,14,46,13.60
2015,04,09,14,47,13.60
2015,04,09,14,48,13.60
2015,04,09,14,49,13.60
2015,04,09,14,50,13.60
2015,04,09,14,51,13.60
2015,04,09,14,52,13.60
2015,04,09,14,53,13.70
2015,04,09,14,54,13.70
2015,04,09,14,55,13.80
2015,04,09,14,56,13.90
2015,04,09,14,57,13.90
2015,04,09,14,58,13.90
2015,04,09,14,59,14.00
2015,04,09,15,00,14.00
2015,04,09,15,01,14.10
2015,04,09,15,02,14.10
2015,04,09,15,03,14.10
2015,04,09,15,04,14.20
2015,04,09,15,05,14.20
2015,04,09,15,06,14.30
2015,04,09,15,07,14.30
2015,04,09,15,08,14.30
2015,04,09,15,09,14.30
2015,04,09,15,10,14.30
2015,04,09,15,11,14.20
2015,04,09,15,12,14.20
2015,04,09,15,13,14.20
2015,04,09,15,14,14.10
2015,04,09,15,15,14.00
2015,04,09,15,16,14.00
2015,04,09,15,17,14.00
2015,04,09,15,18,14.00
2015,04,09,15,19,14.00
2015,04,09,15,20,13.90
2015,04,09,15,21,13.90
2015,04,09,15,22,13.90
2015,04,09,15,23,13.80
2015,04,09,15,24,13.80
2015,04,09,15,25,13.80
2015,04,09,15,26,13.80
2015,04,09,15,27,13.70
2015,04,09,15,28,13.70
2015,04,09,15,29,13.60
2015,04,09,15,30,13.50
2015,04,09,15,31,13.40
2015,04,09,15,32,13.40
2015,04,09,15,33,13.40
2015,04,09,15,34,13.40
2015,04,09,15,35,13.50
2015,04,09,15,36,13.40
2015,04,09,15,37,13.40
2015,04,09,15,38,13.40
2015,04,09,15,39,13.40
2015,04,09,15,40,13.40
2015,04,09,15,41,13.30
2015,04,09,15,42,13.30
2015,04,09,15,43,13.20
2015,04,09,15,44,13.10
2015,04,09,15,45,13.00
2015,04,09,15,46,12.90
2015,04,09,15,47,12.80
2015,04,09,15,48,12.80
2015,04,09,15,49,12.70
2015,04,09,15,50,12.70
2015,04,09,15,51,12.60
2015,04,09,15,52,12.60
2015,04,09,15,53,12.60
2015,04,09,15,54,12.50
2015,04,09,15,55,12.50
2015,04,09,15,56,12.40
2015,04,09,15,57,12.30
2015,04,09,15,58,12.30
2015,04,09,15,59,12.30
2015,04,09,16,00,12.30
2015,04,09,16,01,12.30
2015,04,09,16,02,12.30
2015,04,09,16,03,12.30
2015,04,09,16,04,12.40
2015,04,09,16,05,12.40
2015,04,09,16,06,12.40
2015,04,09,16,07,12.40
2015,04,09,16,08,12.40
2015,04,09,16,09,12.30
2015,04,09,16,10,12.30
2015,04,09,16,11,12.30
2015,04,09,16,12,12.30
2015,04,09,16,13,12.20
2015,04,09,16,14,12.20
2015,04,09,16,15,12.20
2015,04,09,16,16,12.20
2015,04,09,16,17,12.20
2015,04,09,16,18,12.20
2015,04,09,16,19,12.30
2015,04,09,16,20,12.30
2015,04,09,16,21,12.30
2015,04,09,16,22,12.30
2015,04,09,16,23,12.20
2015,04,09,16,24,12.20
2015,04,09,16,25,12.10
2015,04,09,16,26,12.10
2015,04,09,16,27,12.10
2015,04,09,16,28,12.00
2015,04,09,16,29,12.00
2015,04,09,16,30,11.90
2015,04,09,16,31,11.80
2015,04,09,16,32,11.80
2015,04,09,16,33,11.80
2015,04,09,16,34,11.80
2015,04,09,16,35,11.70
2015,04,09,16,36,11.70
2015,04,09,16,37,11.60
2015,04,09,16,38,11.60
2015,04,09,16,39,11.50
2015,04,09,16,40,11.50
2015,04,09,16,41,11.40
2015,04,09,16,42,11.30
2015,04,09,16,43,11.30
2015,04,09,16,44,11.20
2015,04,09,16,45,11.20
2015,04,09,16,46,11.20
2015,04,09,16,47,11.20
2015,04,09,16,48,11.10
2015,04,09,16,49,11.10
2015,04,09,16,50,11.10
2015,04,09,16,51,11.20
2015,04,09,16,52,11.20
2015,04,09,16,53,11.20
2015,04,09,16,54,11.20
2015,04,09,16,55,11.20
2015,04,09,16,56,11.20
2015,04,09,16,57,11.20
2015,04,09,16,58,11.20
2015,04,09,16,59,11.20
2015,04,09,17,00,11.20
2015,04,09,17,01,11.30
2015,04,09,17,02,11.30
2015,04,09,17,03,11.30
2015,04,09,17,04,11.30
2015,04,09,17,05,11.30
2015,04,09,17,06,11.30
2015,04,09,17,07,11.30
2015,04,09,17,08,11.30
2015,04,09,17,09,11.20
2015,04,09,17,10,11.20
2015,04,09,17,11,11.20
2015,04,09,17,12,11.20
2015,04,09,17,13,11.20
2015,04,09,17,14,11.20
2015,04,09,17,15,11.20
2015,04,09,17,16,11.20
2015,04,09,17,17,11.20
2015,04,09,17,18,11.20
2015,04,09,17,19,11.20
2015,04,09,17,20,11.20
2015,04,09,17,21,11.10
2015,04,09,17,22,11.10
2015,04,09,17,23,11.10
2015,04,09,17,24,11.10
2015,04,09,17,25,11.00
2015,04,09,17,26,11.00
2015,04,09,17,27,11.00
2015,04,09,17,28,11.00
2015,04,09,17,29,11.00
2015,04,09,17,30,10.90
2015,04,09,17,31,10.90
2015,04,09,17,32,10.90
2015,04,09,17,33,10.90
2015,04,09,17,34,10.90
2015,04,09,17,35,11.00
2015,04,09,17,36,11.10
2015,04,09,17,37,11.10
2015,04,09,17,38,11.10
2015,04,09,17,39,11.10
2015,04,09,17,40,11.10
2015,04,09,17,41,11.10
2015,04,09,17,42,11.10
2015,04,09,17,43,11.10
2015,04,09,17,44,11.00
2015,04,09,17,45,11.00
2015,04,09,17,46,10.90